| time (UTC) | temp C | wind direction | speed KPH | gust KPH | rain 1hr cm | rain 24hr cm | rain mn cm | humidity % | barometer mb |
| 20260505064636 | 21 | 0.0 | 0.0 | 0.00 | 0.03 | 0.03 | 39 | 1018.1 | |
| 20260505064132 | 22 | 0.0 | 0.0 | 0.00 | 0.03 | 0.03 | 38 | 1018.0 | |
| 20260505063711 | 22 | 0.0 | 3.2 | 0.00 | 0.03 | 0.03 | 36 | 1017.9 | |
| 20260505063251 | 22 | 0.0 | 1.6 | 0.00 | 0.03 | 0.03 | 35 | 1017.8 | |
| 20260505062650 | 23 | 0.0 | 1.6 | 0.00 | 0.03 | 0.03 | 35 | 1017.8 | |
| 20260505062250 | 23 | 0.0 | 1.6 | 0.00 | 0.03 | 0.03 | 35 | 1017.8 | |
| 20260505061748 | 23 | 0.0 | 0.0 | 0.00 | 0.03 | 0.03 | 35 | 1017.8 | |
| 20260505061206 | 23 | 0.0 | 0.0 | 0.00 | 0.03 | 0.03 | 35 | 1017.8 | |
| 20260505060644 | 23 | 0.0 | 1.6 | 0.00 | 0.03 | 0.03 | 35 | 1017.7 | |
| 20260505055102 | 23 | 0.0 | 3.2 | 0.00 | 0.03 | 0.03 | 34 | 1017.7 | |
| 20260505054644 | 23 | 0.0 | 1.6 | 0.00 | 0.03 | 0.03 | 36 | 1017.7 | |
| 20260505054119 | 23 | 180 | 0.0 | 4.8 | 0.00 | 0.03 | 0.03 | 35 | 1017.7 |
| 20260505053618 | 23 | 158 | 0.0 | 8.0 | 0.00 | 0.03 | 0.03 | 34 | 1017.6 |
| 20260505053237 | 23 | 0.0 | 1.6 | 0.00 | 0.03 | 0.03 | 35 | 1017.7 | |
| 20260505052717 | 23 | 0.0 | 1.6 | 0.00 | 0.03 | 0.03 | 35 | 1017.6 | |
| 20260505052055 | 23 | 0.0 | 1.6 | 0.00 | 0.03 | 0.03 | 35 | 1017.7 | |
| 20260505051636 | 23 | 0.0 | 3.2 | 0.00 | 0.03 | 0.03 | 35 | 1017.7 | |
| 20260505051113 | 23 | 0.0 | 1.6 | 0.00 | 0.03 | 0.03 | 37 | 1017.7 | |
| 20260505050653 | 23 | 270 | 0.0 | 6.4 | 0.00 | 0.03 | 0.03 | 35 | 1017.7 |
| 20260505050150 | 23 | 338 | 0.0 | 3.2 | 0.00 | 0.03 | 0.03 | 36 | 1017.7 |
| 20260505041641 | 23 | 125 | 1.6 | 12.9 | 0.00 | 0.03 | 0.03 | 36 | 1017.2 |
| 20260505041059 | 24 | 0.0 | 6.4 | 0.00 | 0.03 | 0.03 | 39 | 1017.2 | |
| 20260505040638 | 23 | 0.0 | 3.2 | 0.00 | 0.03 | 0.03 | 38 | 1017.2 | |
| 20260505040038 | 23 | 225 | 0.0 | 8.0 | 0.00 | 0.03 | 0.03 | 40 | 1017.1 |
| 20260505035638 | 23 | 0.0 | 3.2 | 0.00 | 0.03 | 0.03 | 40 | 1017.2 | |
| 20260505035055 | 23 | 0.0 | 3.2 | 0.00 | 0.03 | 0.03 | 39 | 1017.2 | |
| 20260505034554 | 23 | 180 | 1.6 | 14.5 | 0.00 | 0.03 | 0.03 | 38 | 1017.3 |
| 20260505034053 | 23 | 0.0 | 3.2 | 0.00 | 0.03 | 0.03 | 40 | 1017.2 | |
| 20260505033632 | 23 | 0.0 | 3.2 | 0.00 | 0.03 | 0.03 | 40 | 1017.4 | |
| 20260505033152 | 23 | 0.0 | 3.2 | 0.00 | 0.03 | 0.03 | 40 | 1017.5 | |
| 20260505032631 | 23 | 0.0 | 1.6 | 0.00 | 0.03 | 0.03 | 41 | 1017.5 | |
| 20260505032028 | 23 | 0.0 | 3.2 | 0.00 | 0.03 | 0.03 | 40 | 1017.6 | |
| 20260505031627 | 23 | 0.0 | 1.6 | 0.00 | 0.03 | 0.03 | 41 | 1017.6 | |
| 20260505031026 | 22 | 270 | 1.6 | 12.9 | 0.00 | 0.03 | 0.03 | 41 | 1017.5 |
| 20260505030625 | 22 | 280 | 1.6 | 12.9 | 0.00 | 0.03 | 0.03 | 41 | 1017.6 |
| 20260505030124 | 22 | 270 | 0.0 | 6.4 | 0.00 | 0.03 | 0.03 | 41 | 1017.7 |
| 20260505025523 | 22 | 257 | 1.6 | 12.9 | 0.00 | 0.03 | 0.03 | 43 | 1017.7 |
| 20260505025042 | 22 | 0.0 | 3.2 | 0.00 | 0.03 | 0.03 | 44 | 1017.8 | |
| 20260505024602 | 21 | 0 | 1.6 | 11.3 | 0.00 | 0.03 | 0.03 | 45 | 1017.8 |
| 20260505024201 | 21 | 234 | 1.6 | 22.5 | 0.00 | 0.03 | 0.03 | 43 | 1017.8 |
| 20260505023558 | 22 | 302 | 1.6 | 17.7 | 0.00 | 0.03 | 0.03 | 42 | 1017.9 |
| 20260505023038 | 22 | 0.0 | 3.2 | 0.00 | 0.03 | 0.03 | 42 | 1018.0 | |
| 20260505022557 | 23 | 225 | 3.2 | 12.9 | 0.00 | 0.03 | 0.03 | 43 | 1018.1 |
| 20260505022137 | 22 | 0.0 | 3.2 | 0.00 | 0.03 | 0.03 | 46 | 1018.1 | |
| 20260505021614 | 22 | 270 | 0.0 | 6.4 | 0.00 | 0.03 | 0.03 | 49 | 1018.1 |
| 20260505020734 | 21 | 0.0 | 4.8 | 0.00 | 0.03 | 0.03 | 50 | 1018.1 | |
| 20260505020111 | 21 | 315 | 1.6 | 14.5 | 0.00 | 0.03 | 0.03 | 50 | 1018.1 |
| 20260505015129 | 21 | 0.0 | 8.0 | 0.00 | 0.03 | 0.03 | 50 | 1018.3 | |
| 20260505014749 | 21 | 0.0 | 1.6 | 0.03 | 0.03 | 0.03 | 50 | 1018.4 | |
| 20260505014128 | 21 | 283 | 3.2 | 17.7 | 0.03 | 0.03 | 0.03 | 51 | 1018.6 |
| 20260505013706 | 21 | 0.0 | 3.2 | 0.03 | 0.03 | 0.03 | 50 | 1018.7 | |
| 20260505013205 | 21 | 237 | 1.6 | 8.0 | 0.03 | 0.03 | 0.03 | 50 | 1018.7 |
| 20260505012122 | 21 | 0.0 | 3.2 | 0.03 | 0.03 | 0.03 | 51 | 1018.7 | |
| 20260505011702 | 20 | 0.0 | 3.2 | 0.03 | 0.03 | 0.03 | 53 | 1018.8 | |
| 20260505011220 | 20 | 0.0 | 0.0 | 0.03 | 0.03 | 0.03 | 52 | 1018.9 | |
| 20260505010118 | 20 | 0.0 | 3.2 | 0.03 | 0.03 | 0.03 | 54 | 1018.9 | |
| 20260505005657 | 19 | 225 | 0.0 | 12.9 | 0.03 | 0.03 | 0.03 | 55 | 1019.0 |
| 20260505005158 | 19 | 0.0 | 1.6 | 0.03 | 0.03 | 0.03 | 54 | 1019.1 | |
| 20260505004614 | -17 | 0.0 | 0.0 | 0.00 | 0.00 | 0.00 | 1019.3 | ||
| 20260505004235 | -17 | 0.0 | 0.0 | 0.00 | 0.00 | 0.00 | 1019.3 | ||
| 20260505003632 | -17 | 0.0 | 0.0 | 0.00 | 0.00 | 0.00 | 1019.4 | ||
| 20260505003111 | -17 | 0.0 | 0.0 | 0.00 | 0.00 | 0.00 | 1019.5 | ||
| 20260505002630 | -17 | 0.0 | 0.0 | 0.00 | 0.00 | 0.00 | 1019.4 | ||
| 20260505001650 | -17 | 0.0 | 0.0 | 0.00 | 0.00 | 0.00 | 1019.3 | ||
| 20260505001228 | -17 | 0.0 | 0.0 | 0.00 | 0.00 | 0.00 | 1019.2 | ||
| 20260505000646 | -17 | 0.0 | 0.0 | 0.00 | 0.00 | 0.00 | 1019.3 | ||
| 20260505000226 | -17 | 0.0 | 0.0 | 0.00 | 0.00 | 0.00 | 1019.3 | ||
| 20260504235624 | -17 | 0.0 | 0.0 | 0.00 | 0.00 | 0.00 | 1019.3 | ||
| 20260504235143 | -17 | 0.0 | 0.0 | 0.00 | 0.00 | 0.00 | 1019.4 | ||
| 20260504234541 | -17 | 0.0 | 0.0 | 0.00 | 0.00 | 0.00 | 1019.4 | ||
| 20260504234100 | -17 | 0.0 | 0.0 | 0.00 | 0.00 | 0.00 | 1019.4 | ||
| 20260504233621 | -17 | 0.0 | 0.0 | 0.00 | 0.00 | 0.00 | 1019.5 | ||
| 20260504233058 | -17 | 0.0 | 0.0 | 0.00 | 0.00 | 0.00 | 1019.5 | ||
| 20260504232638 | -17 | 0.0 | 0.0 | 0.00 | 0.00 | 0.00 | 1019.6 | ||
| 20260504232056 | -17 | 0.0 | 0.0 | 0.00 | 0.00 | 0.00 | 1019.6 | ||
| 20260504231636 | -17 | 0.0 | 0.0 | 0.00 | 0.00 | 0.00 | 1019.5 | ||
| 20260504231216 | -17 | 0.0 | 0.0 | 0.00 | 0.00 | 0.00 | 1019.4 | ||
| 20260504230614 | -17 | 0.0 | 0.0 | 0.00 | 0.00 | 0.00 | 1019.4 | ||
| 20260504230031 | -17 | 0.0 | 0.0 | 0.00 | 0.00 | 0.00 | 1019.3 | ||
| 20260504225049 | -17 | 0.0 | 0.0 | 0.00 | 0.00 | 0.00 | 1019.3 | ||
| 20260504224629 | -17 | 0.0 | 0.0 | 0.00 | 0.00 | 0.00 | 1019.3 | ||
| 20260504224027 | -17 | 0.0 | 0.0 | 0.00 | 0.00 | 0.00 | 1019.3 | ||
| 20260504223609 | -17 | 0.0 | 0.0 | 0.00 | 0.00 | 0.00 | 1019.3 | ||
| 20260504223206 | -17 | 0.0 | 0.0 | 0.00 | 0.00 | 0.00 | 1019.4 | ||
| 20260504222624 | -17 | 0.0 | 0.0 | 0.00 | 0.00 | 0.00 | 1019.3 | ||
| 20260504222143 | -17 | 0.0 | 0.0 | 0.00 | 0.00 | 0.00 | 1019.4 | ||
| 20260504221522 | -17 | 0.0 | 0.0 | 0.00 | 0.00 | 0.00 | 1019.4 | ||
| 20260504221040 | -17 | 0.0 | 0.0 | 0.00 | 0.00 | 0.00 | 1019.3 | ||
| 20260504220600 | -17 | 0.0 | 0.0 | 0.00 | 0.00 | 0.00 | 1019.3 | ||
| 20260504220120 | -17 | 0.0 | 0.0 | 0.00 | 0.00 | 0.00 | 1019.2 | ||
| 20260504215537 | -17 | 0.0 | 0.0 | 0.00 | 0.00 | 0.00 | 1019.1 | ||
| 20260504215036 | -17 | 0.0 | 0.0 | 0.00 | 0.00 | 0.00 | 1019.1 | ||
| 20260504214615 | -17 | 0.0 | 0.0 | 0.00 | 0.00 | 0.00 | 1018.8 | ||
| 20260504214155 | -17 | 0.0 | 0.0 | 0.00 | 0.00 | 0.00 | 1018.8 | ||
| 20260504213614 | -17 | 0.0 | 0.0 | 0.00 | 0.00 | 0.00 | 1018.7 | ||
| 20260504213153 | -17 | 0.0 | 0.0 | 0.00 | 0.00 | 0.00 | 1018.6 | ||
| 20260504212611 | -17 | 0.0 | 0.0 | 0.00 | 0.00 | 0.00 | 1018.5 | ||
| 20260504212110 | -17 | 0.0 | 0.0 | 0.00 | 0.00 | 0.00 | 1018.5 | ||
| 20260504211127 | -17 | 0.0 | 0.0 | 0.00 | 0.00 | 0.00 | 1018.4 | ||
| 20260504210747 | -17 | 0.0 | 0.0 | 0.00 | 0.00 | 0.00 | 1018.4 | ||
| 20260504205123 | -17 | 0.0 | 0.0 | 0.00 | 0.00 | 0.00 | 1018.2 | ||
| 20260504204643 | -17 | 0.0 | 0.0 | 0.00 | 0.00 | 0.00 | 1018.1 | ||
| 20260504204122 | -17 | 0.0 | 0.0 | 0.00 | 0.00 | 0.00 | 1018.0 | ||
| 20260504203642 | -17 | 0.0 | 0.0 | 0.00 | 0.00 | 0.00 | 1017.9 | ||
| 20260504203119 | -17 | 0.0 | 0.0 | 0.00 | 0.00 | 0.00 | 1017.8 | ||
| 20260504202638 | -17 | 0.0 | 0.0 | 0.00 | 0.00 | 0.00 | 1017.8 | ||
| 20260504201555 | -17 | 0.0 | 0.0 | 0.00 | 0.00 | 0.00 | 1017.6 | ||
| 20260504200713 | -17 | 0.0 | 0.0 | 0.00 | 0.00 | 0.00 | 1017.6 | ||
| 20260504195612 | -17 | 0.0 | 0.0 | 0.00 | 0.00 | 0.00 | 1017.5 | ||
| 20260504195110 | -17 | 0.0 | 0.0 | 0.00 | 0.00 | 0.00 | 1017.4 | ||
| 20260504194629 | -17 | 0.0 | 0.0 | 0.00 | 0.00 | 0.00 | 1017.3 | ||
| 20260504194109 | -17 | 0.0 | 0.0 | 0.00 | 0.00 | 0.00 | 1017.3 | ||
| 20260504193647 | -17 | 0.0 | 0.0 | 0.00 | 0.00 | 0.00 | 1017.3 | ||
| 20260504193226 | -17 | 0.0 | 0.0 | 0.00 | 0.00 | 0.00 | 1017.3 | ||
| 20260504192645 | -17 | 0.0 | 0.0 | 0.00 | 0.00 | 0.00 | 1017.2 | ||
| 20260504192104 | -17 | 0.0 | 0.0 | 0.00 | 0.00 | 0.00 | 1017.2 | ||
| 20260504191643 | -17 | 0.0 | 0.0 | 0.00 | 0.00 | 0.00 | 1017.1 | ||
| 20260504191204 | -17 | 0.0 | 0.0 | 0.00 | 0.00 | 0.00 | 1017.2 | ||
| 20260504190540 | -17 | 0.0 | 0.0 | 0.00 | 0.00 | 0.00 | 1017.1 | ||
| 20260504185639 | -17 | 0.0 | 0.0 | 0.00 | 0.00 | 0.00 | 1016.9 | ||
| 20260504185057 | -17 | 0.0 | 0.0 | 0.00 | 0.00 | 0.00 | 1016.9 | ||
| 20260504184636 | -17 | 0.0 | 0.0 | 0.00 | 0.00 | 0.00 | 1016.9 | ||
| 20260504184055 | -17 | 0.0 | 0.0 | 0.00 | 0.00 | 0.00 | 1016.8 | ||
| 20260504183634 | -17 | 0.0 | 0.0 | 0.00 | 0.00 | 0.00 | 1016.8 | ||
| 20260504183213 | -17 | 0.0 | 0.0 | 0.00 | 0.00 | 0.00 | 1016.6 | ||
| 20260504182632 | -17 | 0.0 | 0.0 | 0.00 | 0.00 | 0.00 | 1016.6 | ||
| 20260504182050 | -17 | 0.0 | 0.0 | 0.00 | 0.00 | 0.00 | 1016.6 | ||
| 20260504181631 | -17 | 0.0 | 0.0 | 0.00 | 0.00 | 0.00 | 1016.5 | ||
| 20260504181048 | -17 | 0.0 | 0.0 | 0.00 | 0.00 | 0.00 | 1016.5 | ||
| 20260504180607 | -17 | 0.0 | 0.0 | 0.00 | 0.00 | 0.00 | 1016.5 | ||
| 20260504180026 | -17 | 0.0 | 0.0 | 0.00 | 0.00 | 0.00 | 1016.6 | ||
| 20260504175626 | -17 | 0.0 | 0.0 | 0.00 | 0.00 | 0.00 | 1016.6 | ||
| 20260504175044 | -17 | 0.0 | 0.0 | 0.00 | 0.00 | 0.00 | 1016.5 | ||
| 20260504174603 | -17 | 0.0 | 0.0 | 0.00 | 0.00 | 0.00 | 1016.5 | ||
| 20260504174044 | -17 | 0.0 | 0.0 | 0.00 | 0.00 | 0.00 | 1016.5 | ||
| 20260504173621 | -17 | 0.0 | 0.0 | 0.00 | 0.00 | 0.00 | 1016.6 | ||
| 20260504173040 | -17 | 0.0 | 0.0 | 0.00 | 0.00 | 0.00 | 1016.6 | ||
| 20260504172539 | -17 | 0.0 | 0.0 | 0.00 | 0.00 | 0.00 | 1016.7 | ||
| 20260504171115 | -17 | 0.0 | 0.0 | 0.00 | 0.00 | 0.00 | 1016.8 | ||
| 20260504170800 | -17 | 0.0 | 0.0 | 0.00 | 0.00 | 0.00 | 1016.7 | ||
| 20260504170133 | -17 | 0.0 | 0.0 | 0.00 | 0.00 | 0.00 | 1016.7 | ||
| 20260504160121 | -17 | 0.0 | 0.0 | 0.00 | 0.00 | 0.00 | 1016.9 | ||
| 20260504151109 | -17 | 0.0 | 0.0 | 0.00 | 0.00 | 0.00 | 1016.6 | ||
| 20260504150648 | -17 | 0.0 | 0.0 | 0.00 | 0.00 | 0.00 | 1016.5 | ||
| 20260504150107 | -17 | 0.0 | 0.0 | 0.00 | 0.00 | 0.00 | 1016.6 | ||
| 20260504141156 | -17 | 0.0 | 0.0 | 0.00 | 0.00 | 0.00 | 1016.6 | ||
| 20260504130603 | -17 | 0.0 | 0.0 | 0.00 | 0.00 | 0.00 | 1016.6 | ||
| 20260504120249 | -17 | 0.0 | 0.0 | 0.00 | 0.00 | 0.00 | 1016.5 | ||
| 20260504110656 | -17 | 0.0 | 0.0 | 0.00 | 0.00 | 0.00 | 1016.0 | ||
| 20260504110156 | -17 | 0.0 | 0.0 | 0.00 | 0.00 | 0.00 | 1016.0 | ||
| 20260504090117 | -17 | 0.0 | 0.0 | 0.00 | 0.00 | 0.00 | 1015.6 | ||
| 20260504081636 | -17 | 0.0 | 0.0 | 0.00 | 0.00 | 0.00 | 1015.3 | ||
| 20260504080653 | -17 | 0.0 | 0.0 | 0.00 | 0.00 | 0.00 | 1015.2 | ||
| 20260504080134 | -17 | 0.0 | 0.0 | 0.00 | 0.00 | 0.00 | 1015.2 | ||
| 20260504070129 | -17 | 0.0 | 0.0 | 0.00 | 0.00 | 0.00 | 1014.9 |